{"data":{"norad_id":67157,"intl_designator":"2025-301AA","name":"KUIPER-00252","alt_names":[],"object_type":"PAYLOAD","status":"ACTIVE","operator":null,"country":"US","launch_date":"2025-12-16","launch_site_code":"AFETR","launch_vehicle":null,"mission":null,"orbit_class":"UNKNOWN","rcs_meters":null,"size_class":null,"mass_kg":null,"dimensions":null,"purposes":[],"wikipedia_slug":null,"has_3d_model":false,"image_url":null,"decayed_at":null,"tle_current":{"epoch":"2026-09-20T07:39:34.266240Z","epoch_age_seconds":121803,"freshness":"FRESH","line1":"1 67157U 25301AA  26263.31914660  .00001626  00000+0  24219-3 0  9991","line2":"2 67157  51.9007 279.9647 0000537  83.3973 276.7050 14.79936069 42627","mean_motion":14.79936069,"eccentricity":5.37e-5,"inclination_deg":51.9007,"raan_deg":279.9647,"arg_perigee_deg":83.3973,"mean_anomaly_deg":276.705,"bstar":0.00024219,"rev_number":4262,"period_min":97.301500393393,"perigee_km":629.1496296193,"apogee_km":629.90225261917,"semimajor_km":7007.6629411192,"source":"CELESTRAK","updated_at":"2026-09-21T09:00:16.460969Z"}}}